Time,TemperatureF,DewpointF,PressureIn,WindDirection,WindDirectionDegrees,WindSpeedMPH,WindSpeedGustMPH,Humidity,HourlyPrecipIn,Conditions,Clouds,dailyrainin,SolarRadiationWatts/m^2,SoftwareType,DateUTC
2013-04-27 00:42:00,56.0,34.0,-100.00,SW,222,2.0,7.0,43,-99.99,,,0.00,0.000000,,2013-04-27 07:42:00,
2013-04-27 00:52:00,56.0,34.0,-100.00,SW,222,2.0,7.0,43,-99.99,,,0.00,0.000000,,2013-04-27 07:52:00,
2013-04-27 01:01:00,56.0,34.0,-100.00,SW,222,2.0,7.0,43,-99.99,,,0.00,0.000000,,2013-04-27 08:01:00,
2013-04-27 01:11:00,56.0,34.0,-100.00,SW,222,2.0,7.0,43,-99.99,,,0.00,0.000000,,2013-04-27 08:11:00,
2013-04-27 01:41:00,55.0,35.0,-100.00,South,187,5.0,9.0,46,-99.99,,,0.00,0.000000,,2013-04-27 08:41:00,
2013-04-27 01:52:00,55.0,35.0,-100.00,South,187,5.0,9.0,46,-99.99,,,0.00,0.000000,,2013-04-27 08:52:00,
2013-04-27 02:01:00,55.0,35.0,-100.00,South,187,5.0,9.0,46,-99.99,,,0.00,0.000000,,2013-04-27 09:01:00,
2013-04-27 02:11:00,55.0,35.0,-100.00,South,187,5.0,9.0,46,-99.99,,,0.00,0.000000,,2013-04-27 09:11:00,
2013-04-27 02:42:00,51.0,37.0,-100.00,South,189,1.0,4.0,57,-99.99,,,0.00,0.000000,,2013-04-27 09:42:00,
2013-04-27 02:53:00,51.0,37.0,-100.00,South,189,1.0,4.0,57,-99.99,,,0.00,0.000000,,2013-04-27 09:53:00,
2013-04-27 03:02:00,51.0,37.0,-100.00,South,189,1.0,4.0,57,-99.99,,,0.00,0.000000,,2013-04-27 10:02:00,
2013-04-27 03:12:00,51.0,37.0,-100.00,South,189,1.0,4.0,57,-99.99,,,0.00,0.000000,,2013-04-27 10:12:00,
2013-04-27 03:42:00,49.0,36.0,-100.00,South,180,2.0,3.0,60,-99.99,,,0.00,0.000000,,2013-04-27 10:42:00,
2013-04-27 03:52:00,49.0,36.0,-100.00,South,180,2.0,3.0,60,-99.99,,,0.00,0.000000,,2013-04-27 10:52:00,
2013-04-27 04:02:00,49.0,36.0,-100.00,South,180,2.0,3.0,60,-99.99,,,0.00,0.000000,,2013-04-27 11:02:00,
2013-04-27 04:11:00,49.0,36.0,-100.00,South,180,2.0,3.0,60,-99.99,,,0.00,0.000000,,2013-04-27 11:11:00,
2013-04-27 04:41:00,47.0,37.0,-100.00,South,189,1.0,2.0,66,-99.99,,,0.00,0.000000,,2013-04-27 11:41:00,
2013-04-27 04:52:00,47.0,37.0,-100.00,South,189,1.0,2.0,66,-99.99,,,0.00,0.000000,,2013-04-27 11:52:00,
2013-04-27 05:01:00,47.0,37.0,-100.00,South,189,1.0,2.0,66,-99.99,,,0.00,0.000000,,2013-04-27 12:01:00,
2013-04-27 05:11:00,47.0,37.0,-100.00,South,189,1.0,2.0,66,-99.99,,,0.00,0.000000,,2013-04-27 12:11:00,
2013-04-27 05:42:00,48.0,36.0,-100.00,SSW,195,1.0,3.0,64,-99.99,,,0.00,0.000000,,2013-04-27 12:42:00,
2013-04-27 05:52:00,48.0,36.0,-100.00,SSW,195,1.0,3.0,64,-99.99,,,0.00,0.000000,,2013-04-27 12:52:00,
2013-04-27 06:01:00,48.0,36.0,-100.00,SSW,195,1.0,3.0,64,-99.99,,,0.00,0.000000,,2013-04-27 13:01:00,
2013-04-27 06:11:00,48.0,36.0,-100.00,SSW,195,1.0,3.0,64,-99.99,,,0.00,0.000000,,2013-04-27 13:11:00,
2013-04-27 06:41:00,46.0,37.0,-100.00,South,175,1.0,4.0,69,-99.99,,,0.00,4.530000,,2013-04-27 13:41:00,
2013-04-27 06:52:00,46.0,37.0,-100.00,South,175,1.0,4.0,69,-99.99,,,0.00,4.530000,,2013-04-27 13:52:00,
2013-04-27 07:02:00,46.0,37.0,-100.00,South,175,1.0,4.0,69,-99.99,,,0.00,4.530000,,2013-04-27 14:02:00,
2013-04-27 07:11:00,46.0,37.0,-100.00,South,175,1.0,4.0,69,-99.99,,,0.00,4.530000,,2013-04-27 14:11:00,
2013-04-27 07:41:00,51.0,36.0,-100.00,South,172,1.0,3.0,57,-99.99,,,0.00,64.730003,,2013-04-27 14:41:00,
2013-04-27 07:52:00,51.0,36.0,-100.00,South,172,1.0,3.0,57,-99.99,,,0.00,64.730003,,2013-04-27 14:52:00,
2013-04-27 08:11:00,51.0,36.0,-100.00,South,172,1.0,3.0,57,-99.99,,,0.00,64.730003,,2013-04-27 15:11:00,
2013-04-27 08:42:00,60.0,38.0,-100.00,South,186,1.0,6.0,44,-99.99,,,0.00,272.649994,,2013-04-27 15:42:00,
2013-04-27 08:53:00,60.0,38.0,-100.00,South,186,1.0,6.0,44,-99.99,,,0.00,272.649994,,2013-04-27 15:53:00,
2013-04-27 09:42:00,63.0,38.0,-100.00,NW,308,3.0,9.0,39,-99.99,,,0.00,471.269989,,2013-04-27 16:42:00,
2013-04-27 10:11:00,63.0,38.0,-100.00,NW,308,3.0,9.0,39,-99.99,,,0.00,471.269989,,2013-04-27 17:11:00,
2013-04-27 10:42:00,68.0,28.0,-100.00,South,190,9.0,18.0,22,-99.99,,,0.00,613.760010,,2013-04-27 17:42:00,
2013-04-27 10:53:00,68.0,28.0,-100.00,South,190,9.0,18.0,22,-99.99,,,0.00,613.760010,,2013-04-27 17:53:00,
2013-04-27 11:02:00,68.0,28.0,-100.00,South,190,9.0,18.0,22,-99.99,,,0.00,613.760010,,2013-04-27 18:02:00,
2013-04-27 11:11:00,68.0,28.0,-100.00,South,190,9.0,18.0,22,-99.99,,,0.00,613.760010,,2013-04-27 18:11:00,
2013-04-27 11:41:00,69.0,28.0,-100.00,SSW,207,8.0,21.0,21,-99.99,,,0.00,764.030029,,2013-04-27 18:41:00,
2013-04-27 11:52:00,69.0,28.0,-100.00,SSW,207,8.0,21.0,21,-99.99,,,0.00,764.030029,,2013-04-27 18:52:00,
2013-04-27 12:02:00,69.0,28.0,-100.00,SSW,207,8.0,21.0,21,-99.99,,,0.00,764.030029,,2013-04-27 19:02:00,
2013-04-27 12:11:00,69.0,28.0,-100.00,SSW,207,8.0,21.0,21,-99.99,,,0.00,764.030029,,2013-04-27 19:11:00,
2013-04-27 12:42:00,69.0,29.0,-100.00,SSW,210,8.0,26.0,22,-99.99,,,0.00,846.080017,,2013-04-27 19:42:00,
2013-04-27 12:53:00,69.0,29.0,-100.00,SSW,210,8.0,26.0,22,-99.99,,,0.00,846.080017,,2013-04-27 19:53:00,
2013-04-27 13:02:00,69.0,29.0,-100.00,SSW,210,8.0,26.0,22,-99.99,,,0.00,846.080017,,2013-04-27 20:02:00,
2013-04-27 13:11:00,69.0,29.0,-100.00,SSW,210,8.0,26.0,22,-99.99,,,0.00,846.080017,,2013-04-27 20:11:00,
2013-04-27 13:42:00,71.0,31.0,-100.00,SSW,203,8.0,19.0,22,-99.99,,,0.00,922.789978,,2013-04-27 20:42:00,
2013-04-27 13:52:00,71.0,31.0,-100.00,SSW,203,8.0,19.0,22,-99.99,,,0.00,922.789978,,2013-04-27 20:52:00,
2013-04-27 14:02:00,71.0,31.0,-100.00,SSW,203,8.0,19.0,22,-99.99,,,0.00,922.789978,,2013-04-27 21:02:00,
2013-04-27 14:11:00,71.0,31.0,-100.00,SSW,203,8.0,19.0,22,-99.99,,,0.00,922.789978,,2013-04-27 21:11:00,
2013-04-27 14:42:00,71.0,32.0,-100.00,SSW,206,9.0,22.0,23,-99.99,,,0.00,879.789978,,2013-04-27 21:42:00,
2013-04-27 14:53:00,71.0,32.0,-100.00,SSW,206,9.0,22.0,23,-99.99,,,0.00,879.789978,,2013-04-27 21:53:00,
2013-04-27 15:02:00,71.0,32.0,-100.00,SSW,206,9.0,22.0,23,-99.99,,,0.00,879.789978,,2013-04-27 22:02:00,
2013-04-27 15:12:00,71.0,32.0,-100.00,SSW,206,9.0,22.0,23,-99.99,,,0.00,879.789978,,2013-04-27 22:12:00,
2013-04-27 15:42:00,71.0,30.0,-100.00,SSW,209,9.0,30.0,22,-99.99,,,0.00,776.349976,,2013-04-27 22:42:00,
2013-04-27 15:52:00,71.0,30.0,-100.00,SSW,209,9.0,30.0,22,-99.99,,,0.00,776.349976,,2013-04-27 22:52:00,
2013-04-27 16:02:00,71.0,30.0,-100.00,SSW,209,9.0,30.0,22,-99.99,,,0.00,776.349976,,2013-04-27 23:02:00,
2013-04-27 16:11:00,71.0,30.0,-100.00,SSW,209,9.0,30.0,22,-99.99,,,0.00,776.349976,,2013-04-27 23:11:00,
2013-04-27 16:42:00,71.0,32.0,-100.00,WSW,239,5.0,14.0,23,-99.99,,,0.00,633.280029,,2013-04-27 23:42:00,
2013-04-27 16:52:00,71.0,32.0,-100.00,WSW,239,5.0,14.0,23,-99.99,,,0.00,633.280029,,2013-04-27 23:52:00,
2013-04-27 17:01:00,71.0,32.0,-100.00,WSW,239,5.0,14.0,23,-99.99,,,0.00,633.280029,,2013-04-28 00:01:00,
2013-04-27 17:11:00,71.0,32.0,-100.00,WSW,239,5.0,14.0,23,-99.99,,,0.00,633.280029,,2013-04-28 00:11:00,
2013-04-27 17:42:00,69.0,37.0,-100.00,NW,320,2.0,9.0,30,-99.99,,,0.00,445.470001,,2013-04-28 00:42:00,
2013-04-27 17:52:00,69.0,37.0,-100.00,NW,320,2.0,9.0,30,-99.99,,,0.00,445.470001,,2013-04-28 00:52:00,
2013-04-27 18:01:00,69.0,37.0,-100.00,NW,320,2.0,9.0,30,-99.99,,,0.00,445.470001,,2013-04-28 01:01:00,
2013-04-27 18:11:00,69.0,37.0,-100.00,NW,320,2.0,9.0,30,-99.99,,,0.00,445.470001,,2013-04-28 01:11:00,
2013-04-27 18:42:00,66.0,36.0,-100.00,SW,224,3.0,10.0,33,-99.99,,,0.00,231.050003,,2013-04-28 01:42:00,
2013-04-27 18:52:00,66.0,36.0,-100.00,SW,224,3.0,10.0,33,-99.99,,,0.00,231.050003,,2013-04-28 01:52:00,
2013-04-27 19:01:00,66.0,36.0,-100.00,SW,224,3.0,10.0,33,-99.99,,,0.00,231.050003,,2013-04-28 02:01:00,
2013-04-27 19:11:00,66.0,36.0,-100.00,SW,224,3.0,10.0,33,-99.99,,,0.00,231.050003,,2013-04-28 02:11:00,
2013-04-27 19:42:00,63.0,37.0,-100.00,SW,219,2.0,7.0,37,-99.99,,,0.00,40.790001,,2013-04-28 02:42:00,
2013-04-27 19:52:00,63.0,37.0,-100.00,SW,219,2.0,7.0,37,-99.99,,,0.00,40.790001,,2013-04-28 02:52:00,
2013-04-27 20:01:00,63.0,37.0,-100.00,SW,219,2.0,7.0,37,-99.99,,,0.00,40.790001,,2013-04-28 03:01:00,
2013-04-27 20:11:00,63.0,37.0,-100.00,SW,219,2.0,7.0,37,-99.99,,,0.00,40.790001,,2013-04-28 03:11:00,
2013-04-27 20:42:00,59.0,41.0,-100.00,South,185,0.0,3.0,50,-99.99,,,0.00,1.980000,,2013-04-28 03:42:00,
2013-04-27 20:53:00,59.0,41.0,-100.00,South,185,0.0,3.0,50,-99.99,,,0.00,1.980000,,2013-04-28 03:53:00,
2013-04-27 21:02:00,59.0,41.0,-100.00,South,185,0.0,3.0,50,-99.99,,,0.00,1.980000,,2013-04-28 04:02:00,
2013-04-27 21:13:00,59.0,41.0,-100.00,South,185,0.0,3.0,50,-99.99,,,0.00,1.980000,,2013-04-28 04:13:00,
2013-04-27 21:42:00,59.0,41.0,-100.00,South,181,2.0,4.0,50,-99.99,,,0.00,0.000000,,2013-04-28 04:42:00,
2013-04-27 21:53:00,59.0,41.0,-100.00,South,181,2.0,4.0,50,-99.99,,,0.00,0.000000,,2013-04-28 04:53:00,
2013-04-27 22:02:00,59.0,41.0,-100.00,South,181,2.0,4.0,50,-99.99,,,0.00,0.000000,,2013-04-28 05:02:00,
2013-04-27 22:12:00,59.0,41.0,-100.00,South,181,2.0,4.0,50,-99.99,,,0.00,0.000000,,2013-04-28 05:12:00,
2013-04-27 22:42:00,57.0,41.0,-100.00,South,181,5.0,10.0,54,-99.99,,,0.00,0.000000,,2013-04-28 05:42:00,
2013-04-27 22:52:00,57.0,41.0,-100.00,South,181,5.0,10.0,54,-99.99,,,0.00,0.000000,,2013-04-28 05:52:00,
2013-04-27 23:01:00,57.0,41.0,-100.00,South,181,5.0,10.0,54,-99.99,,,0.00,0.000000,,2013-04-28 06:01:00,
2013-04-27 23:12:00,57.0,41.0,-100.00,South,181,5.0,10.0,54,-99.99,,,0.00,0.000000,,2013-04-28 06:12:00,
2013-04-27 23:42:00,56.0,41.0,-100.00,South,182,5.0,11.0,55,-99.99,,,0.00,0.000000,,2013-04-28 06:42:00,
2013-04-27 23:52:00,56.0,41.0,-100.00,South,182,5.0,11.0,55,-99.99,,,0.00,0.000000,,2013-04-28 06:52:00,